Wind_Speed
38 38 38 39 39 39 39 38 36 36 35 33 32 30 28 27 26 26 25 24 25 25 23 22 22 22 22 21 22 23 24 24 24 23 20 19 19 21 22 21 19 18 17 16
39 39 39 40 41 40 40 39 38 37 36 35 33 31 29 28 27 27 27 25 25 25 25 24 23 23 22 22 23 24 24 25 25 24 23 22 22 23 24 23 22 22 20 19
33 37 38 39 38 38 38 37 36 36 34 33 31 29 29 28 29 29 28 27 26 25 25 24 24 23 23 23 25 25 25 26 26 26 26 26 25 26 26 26 26 25 24 22
27 30 31 32 33 33 34 34 34 33 32 32 31 30 28 27 28 29 29 28 26 25 25 26 26 25 25 25 25 25 25 27 28 28 28 28 29 29 29 29 28 27 26 25
24 25 27 27 28 29 29 30 31 31 31 31 30 29 26 25 26 27 28 28 27 25 25 26 26 26 26 26 26 26 27 28 29 29 29 30 30 31 31 30 30 29 29 28
25 25 26 26 27 27 28 28 29 28 28 28 27 27 27 25 25 25 26 26 26 24 24 24 25 26 26 27 27 27 27 27 28 29 30 30 31 31 31 29 29 28 28 28
24 26 26 26 27 27 27 27 26 26 25 25 26 26 26 26 23 22 22 23 22 22 22 23 24 25 26 27 27 27 27 27 27 28 29 29 29 28 28 27 26 26 26 26
23 25 27 27 27 28 27 26 26 25 24 24 24 23 21 21 21 19 18 19 20 21 22 23 24 25 26 27 26 25 26 26 27 27 26 25 24 24 24 24 23 22 22 22
24 24 25 27 27 26 27 27 27 26 26 26 25 23 19 18 18 18 18 19 20 22 23 24 24 25 25 25 25 24 24 25 26 25 24 22 21 20 20 20 19 18 18 18
26 25 24 25 25 26 26 27 27 26 26 27 27 25 20 18 17 18 19 20 21 22 22 22 22 22 22 23 23 23 23 23 24 24 23 21 20 19 18 17 16 16 16 17
26 26 25 24 24 25 25 26 27 28 28 27 26 24 21 16 16 17 18 19 20 20 21 21 22 22 22 22 22 21 21 22 23 23 22 21 20 19 18 16 16 15 15 16
25 26 25 24 25 25 26 26 27 28 28 28 28 25 23 21 20 21 21 22 22 22 22 22 22 23 22 22 21 20 21 22 23 22 21 20 20 20 20 19 18 17 17 17
25 25 25 23 24 26 27 27 27 28 29 30 30 27 27 25 25 25 25 25 25 25 24 24 24 23 23 22 22 21 21 22 22 21 20 20 20 21 21 21 21 20 19 19
26 25 25 24 24 25 24 25 26 26 28 29 29 29 28 28 27 27 27 27 28 28 27 27 26 25 24 23 22 21 22 23 22 21 21 21 21 22 22 23 23 22 22 22
27 26 26 26 24 23 23 23 23 24 25 27 26 26 26 27 28 29 29 31 30 29 29 28 27 25 23 22 22 23 23 23 22 22 23 23 23 23 23 23 24 24 24 24
27 25 25 24 22 20 19 19 20 19 20 22 23 24 26 27 28 28 29 30 30 29 28 27 26 25 24 23 23 24 24 23 23 24 24 25 24 23 23 23 24 24 25 25
24 21 20 19 19 16 15 16 16 17 17 19 19 20 22 24 24 24 24 25 26 26 25 24 24 23 23 23 23 23 23 22 23 23 24 24 23 23 23 23 23 24 24 25
18 14 14 14 15 14 14 14 14 15 15 15 15 16 17 17 18 17 17 17 17 19 19 20 20 20 21 21 22 22 22 22 23 23 23 23 22 23 23 23 23 23 24 24
15 9 7 9 13 14 16 15 14 13 13 12 12 12 11 11 12 11 9 8 9 10 12 13 14 15 17 17 18 20 21 22 22 22 22 22 23 23 23 23 23 23 23 23
12 7 8 11 12 15 17 16 15 13 13 12 11 11 10 8 7 6 4 3 4 5 6 8 10 13 15 16 18 19 20 21 21 22 22 22 23 23 23 23 24 24 24 24
13 10 13 15 14 16 17 18 17 17 16 14 13 11 9 6 5 3 2 2 3 5 7 9 11 12 14 16 17 18 19 19 20 21 21 21 21 21 21 21 22 23 24 25
14 13 15 17 17 17 18 19 21 19 17 15 14 11 7 5 3 3 3 3 4 6 8 10 11 12 13 14 15 16 16 18 18 19 19 18 18 18 18 19 20 22 24 26
15 14 15 17 18 18 19 22 22 19 18 16 13 10 7 5 3 3 3 5 6 7 10 11 11 11 11 12 13 14 16 16 16 16 16 15 15 15 16 18 19 21 23 25
16 13 15 17 19 19 18 21 21 20 19 17 13 10 7 5 4 4 5 6 7 9 11 11 11 11 11 12 13 14 15 15 14 14 13 12 13 14 15 16 17 19 21 22
18 12 14 17 19 17 18 19 19 18 18 16 12 10 8 5 4 5 5 6 8 10 11 11 11 11 11 12 13 14 14 13 12 11 10 11 12 13 14 15 16 16 16 15
19 11 9 14 18 18 17 18 17 19 18 15 12 10 7 5 4 4 5 6 8 9 11 11 12 12 11 12 12 12 12 11 10 9 10 11 11 12 13 14 14 14 14 10
Wind_Direction
239 242 245 247 250 253 254 254 254 256 259 262 264 266 268 270 273 274 275 274 273 276 281 284 287 288 289 288 287 288 288 288 289 290 290 288 284 280 276 273 272 274 274 270
243 245 247 250 252 255 257 257 256 257 259 261 264 266 268 268 269 268 267 266 266 270 276 281 284 285 285 285 285 286 287 287 289 290 289 285 280 275 273 271 269 267 267 266
253 251 251 252 254 256 257 257 258 257 258 263 266 267 268 267 265 262 259 258 261 267 274 280 281 281 282 283 285 287 288 289 290 290 289 286 283 279 275 271 267 265 263 262
268 266 262 260 260 259 257 257 259 261 260 261 265 267 266 263 260 257 254 254 259 266 273 277 278 279 281 282 286 289 289 290 290 289 288 285 282 279 275 270 267 264 260 256
268 268 268 266 264 263 262 261 261 262 262 262 264 265 263 259 257 255 253 253 258 265 271 274 275 278 281 285 289 290 291 292 291 289 287 284 281 278 275 272 268 263 259 254
265 265 263 262 261 262 262 261 261 260 259 259 260 261 261 258 254 254 253 256 260 264 268 271 274 278 283 287 290 292 293 294 292 290 287 284 281 278 275 272 268 264 259 255
270 267 263 260 259 258 259 259 261 263 263 261 260 259 258 258 258 257 257 259 262 264 267 270 275 280 284 288 290 292 294 294 294 292 289 285 282 279 276 272 268 264 259 256
277 274 271 266 261 259 257 257 259 262 266 267 262 259 262 263 264 264 262 260 261 263 267 271 277 282 286 289 291 293 296 295 295 294 292 288 284 280 277 272 267 263 259 256
282 275 272 270 266 262 261 260 259 261 262 264 266 265 266 267 266 266 263 261 261 264 269 275 280 283 286 289 292 295 296 296 295 294 292 289 285 281 278 273 267 262 257 255
286 280 273 268 266 263 259 260 263 262 262 264 264 265 269 267 263 261 260 261 263 268 273 277 280 283 286 289 292 294 295 295 296 295 290 286 283 279 278 275 269 263 259 256
284 279 274 267 262 259 257 255 255 258 259 261 265 268 264 262 256 254 256 259 264 268 273 277 281 283 285 287 289 293 295 298 299 297 290 282 278 276 275 276 273 269 264 261
284 278 272 267 261 257 254 252 251 252 254 256 259 260 261 259 257 255 255 259 263 268 273 278 280 281 281 282 286 290 296 299 299 297 292 283 278 276 275 275 274 272 270 267
285 275 270 266 261 254 252 252 252 251 253 256 259 261 264 264 261 259 258 261 265 269 272 276 277 278 279 279 283 287 293 297 296 293 289 284 280 278 277 275 274 272 270 268
286 269 263 261 258 256 253 253 254 252 253 255 257 260 265 269 268 265 263 264 267 270 272 274 276 276 276 278 280 284 290 292 291 287 284 282 281 281 279 277 274 271 269 267
291 270 257 255 259 256 254 252 256 255 251 254 258 265 269 272 271 270 268 269 270 271 270 270 271 272 273 276 280 282 287 288 285 282 280 281 282 281 280 277 274 270 266 264
295 275 259 251 253 255 254 250 251 252 252 259 265 271 275 277 276 275 271 269 269 268 267 266 266 267 269 275 279 282 285 286 283 281 282 284 285 283 280 278 273 269 264 261
301 281 259 244 243 246 246 245 250 256 259 264 268 273 278 281 283 281 277 272 267 263 262 263 263 265 268 273 277 281 284 285 284 284 285 286 285 283 281 278 273 268 263 260
316 291 265 237 227 230 236 237 243 252 258 259 263 270 280 288 292 291 286 277 267 259 257 258 261 264 268 273 277 280 284 287 288 287 287 287 285 283 281 277 273 269 264 259
327 301 257 220 212 221 228 228 232 241 245 248 253 261 270 286 295 295 292 279 262 250 248 251 258 265 271 276 280 284 288 291 291 291 290 289 287 284 281 277 274 270 266 260
316 280 235 214 215 225 226 223 225 227 229 233 234 236 248 268 277 287 283 268 255 248 251 258 267 274 279 283 287 290 292 293 293 293 293 291 289 286 282 277 273 269 266 262
303 270 238 224 221 223 223 218 216 218 219 221 220 227 244 257 266 269 262 261 272 275 277 280 282 284 286 288 290 293 295 296 297 298 297 295 292 289 285 281 275 271 268 265
302 273 250 238 230 214 210 207 211 215 214 212 213 228 240 240 246 256 266 280 289 290 291 291 290 290 291 293 296 299 301 304 305 304 303 300 297 295 293 289 284 278 273 269
314 278 260 251 238 220 209 207 207 213 217 213 218 232 236 238 251 268 281 292 298 301 303 301 299 298 300 303 306 308 311 313 314 313 310 308 307 307 304 299 294 288 281 274
331 289 264 253 241 233 221 208 207 212 213 214 221 230 232 241 259 276 290 298 303 307 310 309 308 307 308 310 313 316 318 320 320 318 316 315 317 318 317 313 309 302 295 283
342 308 268 253 242 235 222 211 208 210 212 217 219 222 230 239 259 281 295 305 310 315 318 316 314 313 314 316 319 322 324 324 323 324 325 327 328 329 329 329 326 322 316 301
356 337 282 252 240 236 225 216 213 214 214 214 217 220 225 237 261 284 303 314 320 323 324 323 321 320 320 322 324 326 326 327 328 331 335 336 337 339 342 343 341 340 342 337
Height
5852 5855 5856 5856 5858 5859 5860 5862 5863 5863 5863 5865 5865 5866 5867 5866 5866 5865 5864 5864 5864 5863 5863 5862 5861 5861 5860 5859 5858 5856 5855 5854 5853 5852 5850 5850 5848 5847 5846 5844 5843 5842 5840 5839
5847 5848 5849 5850 5851 5852 5853 5854 5855 5855 5855 5857 5858 5859 5860 5860 5859 5859 5858 5858 5858 5858 5858 5858 5857 5856 5855 5854 5853 5852 5850 5849 5848 5847 5845 5845 5843 5842 5841 5839 5838 5837 5836 5835
5840 5841 5841 5842 5843 5844 5845 5846 5846 5847 5847 5849 5851 5853 5853 5853 5852 5852 5852 5852 5853 5853 5853 5852 5852 5851 5850 5849 5848 5846 5845 5843 5842 5841 5840 5838 5837 5836 5835 5834 5833 5832 5831 5830
5834 5834 5835 5835 5835 5836 5837 5837 5838 5839 5841 5842 5844 5844 5846 5845 5845 5845 5845 5846 5847 5847 5847 5847 5846 5845 5845 5844 5842 5841 5839 5837 5836 5835 5833 5832 5830 5829 5828 5827 5826 5825 5825 5825
5828 5828 5828 5829 5829 5829 5830 5830 5831 5832 5833 5835 5836 5837 5839 5838 5838 5838 5839 5840 5841 5841 5841 5841 5840 5840 5839 5838 5836 5835 5833 5831 5830 5828 5826 5825 5823 5821 5820 5819 5818 5818 5818 5818
5822 5822 5822 5823 5822 5823 5824 5824 5824 5825 5825 5828 5828 5829 5831 5831 5831 5831 5832 5833 5834 5835 5835 5835 5834 5834 5833 5832 5830 5829 5827 5825 5823 5821 5819 5817 5815 5814 5812 5811 5810 5810 5810 5811
5816 5815 5815 5816 5816 5817 5818 5819 5819 5819 5820 5821 5821 5822 5823 5823 5824 5825 5826 5826 5827 5828 5829 5829 5828 5828 5827 5826 5825 5823 5821 5819 5817 5815 5812 5810 5808 5806 5805 5804 5803 5803 5803 5804
5811 5810 5808 5808 5810 5810 5810 5812 5814 5815 5815 5815 5814 5816 5817 5816 5817 5819 5820 5821 5821 5822 5823 5823 5823 5822 5821 5820 5819 5817 5815 5813 5811 5809 5806 5804 5802 5800 5799 5798 5797 5797 5797 5798
5804 5804 5802 5801 5802 5804 5804 5805 5807 5809 5809 5810 5810 5811 5812 5811 5812 5813 5814 5815 5816 5816 5816 5817 5817 5816 5815 5814 5813 5812 5810 5807 5805 5802 5800 5798 5797 5795 5794 5793 5792 5792 5792 5793
5797 5797 5796 5795 5795 5796 5798 5799 5800 5801 5803 5804 5805 5806 5807 5807 5808 5808 5809 5809 5810 5810 5810 5810 5810 5810 5809 5808 5807 5806 5804 5802 5799 5797 5795 5793 5792 5790 5789 5789 5788 5788 5788 5788
5790 5789 5789 5788 5788 5789 5790 5792 5792 5795 5797 5799 5800 5802 5800 5801 5802 5802 5803 5803 5804 5804 5804 5804 5804 5804 5803 5802 5801 5800 5798 5796 5794 5791 5789 5788 5787 5786 5786 5785 5784 5784 5784 5783
5782 5781 5780 5780 5781 5781 5782 5783 5785 5788 5789 5790 5792 5797 5793 5795 5795 5796 5796 5797 5797 5798 5798 5798 5798 5798 5797 5796 5795 5794 5793 5791 5789 5786 5784 5783 5782 5781 5781 5780 5780 5779 5779 5779
5774 5773 5772 5773 5774 5774 5774 5775 5777 5780 5781 5782 5784 5788 5784 5787 5788 5789 5790 5791 5792 5792 5792 5792 5792 5791 5791 5790 5790 5789 5787 5786 5784 5782 5780 5779 5777 5776 5775 5775 5774 5774 5773 5773
5765 5764 5765 5765 5764 5764 5766 5768 5770 5772 5773 5775 5777 5778 5779 5780 5781 5782 5783 5784 5785 5785 5786 5786 5786 5785 5785 5784 5783 5783 5782 5780 5779 5777 5775 5774 5773 5771 5770 5769 5768 5767 5767 5767
5756 5755 5755 5755 5756 5757 5759 5761 5763 5765 5766 5768 5769 5771 5772 5773 5773 5774 5775 5775 5776 5777 5778 5778 5779 5779 5779 5778 5778 5777 5776 5775 5773 5771 5770 5769 5767 5766 5764 5763 5762 5761 5760 5760
5745 5744 5745 5748 5750 5751 5754 5756 5757 5759 5761 5763 5765 5766 5766 5766 5765 5766 5766 5766 5767 5768 5769 5770 5771 5772 5772 5772 5771 5771 5770 5768 5767 5765 5764 5762 5761 5759 5757 5756 5755 5754 5753 5753
5736 5735 5737 5740 5744 5746 5749 5751 5753 5754 5756 5758 5760 5761 5760 5759 5759 5759 5758 5758 5759 5760 5761 5763 5765 5766 5766 5766 5765 5764 5763 5762 5761 5759 5757 5755 5754 5752 5750 5749 5748 5747 5746 5746
5730 5729 5731 5735 5740 5743 5747 5747 5749 5751 5752 5754 5755 5755 5755 5755 5754 5753 5753 5752 5753 5754 5756 5758 5759 5760 5761 5760 5760 5759 5757 5756 5754 5752 5750 5748 5747 5745 5743 5741 5740 5739 5739 5739
5728 5727 5729 5732 5736 5739 5741 5742 5745 5748 5749 5750 5751 5752 5753 5752 5752 5751 5751 5750 5751 5752 5753 5754 5755 5756 5756 5755 5754 5753 5752 5750 5748 5746 5743 5741 5739 5737 5736 5734 5733 5732 5731 5731
5726 5726 5727 5729 5732 5735 5736 5739 5741 5745 5746 5747 5748 5750 5750 5751 5751 5751 5751 5751 5751 5751 5752 5753 5753 5753 5752 5751 5750 5748 5746 5744 5742 5739 5737 5734 5732 5730 5728 5726 5725 5724 5723 5723
5723 5723 5723 5723 5726 5729 5732 5735 5739 5742 5744 5744 5746 5747 5748 5749 5750 5751 5751 5751 5751 5751 5752 5751 5751 5750 5749 5747 5746 5744 5741 5739 5736 5733 5730 5728 5725 5723 5721 5719 5717 5716 5715 5715
5719 5719 5718 5719 5720 5724 5726 5730 5734 5736 5739 5741 5743 5745 5747 5748 5750 5750 5751 5751 5751 5751 5750 5750 5748 5747 5745 5744 5742 5739 5737 5734 5731 5728 5725 5722 5719 5717 5715 5712 5710 5709 5707 5706
5715 5715 5714 5715 5717 5717 5720 5725 5729 5733 5736 5739 5742 5744 5746 5748 5749 5749 5750 5750 5750 5749 5749 5747 5746 5744 5742 5740 5738 5735 5732 5729 5726 5723 5720 5717 5714 5712 5709 5706 5703 5701 5698 5696
5711 5710 5710 5711 5713 5715 5718 5722 5727 5732 5735 5738 5741 5743 5745 5747 5748 5748 5749 5749 5748 5748 5747 5745 5743 5741 5739 5737 5734 5731 5728 5725 5722 5719 5716 5714 5711 5708 5705 5701 5697 5693 5689 5686
5709 5707 5707 5709 5712 5715 5718 5721 5726 5730 5733 5737 5740 5742 5744 5746 5747 5748 5748 5747 5747 5746 5745 5743 5741 5739 5736 5734 5731 5728 5725 5722 5719 5716 5713 5711 5708 5704 5701 5697 5693 5688 5683 5678
5709 5706 5706 5708 5710 5714 5717 5721 5725 5729 5733 5736 5739 5742 5744 5745 5746 5746 5746 5746 5745 5744 5742 5741 5739 5736 5734 5731 5728 5725 5722 5719 5717 5714 5711 5708 5705 5702 5698 5694 5690 5685 5681 5676